TimeMST,TemperatureF,Dew PointF,Humidity,Sea Level PressureIn,VisibilityMPH,Wind Direction,Wind SpeedMPH,Gust SpeedMPH,PrecipitationIn,Events,Conditions,WindDirDegrees,DateUTC
12:57 AM,6.1,-0.0,76,30.08,10.0,Calm,Calm,-,N/A,,Clear,0,2013-12-07 07:57:00
1:57 AM,17.1,7.0,65,30.01,10.0,West,5.8,-,N/A,,Mostly Cloudy,270,2013-12-07 08:57:00
2:57 AM,17.1,7.0,65,30.00,10.0,West,5.8,-,N/A,,Clear,270,2013-12-07 09:57:00
3:57 AM,16.0,6.1,65,29.99,10.0,West,6.9,-,N/A,,Clear,280,2013-12-07 10:57:00
4:57 AM,12.0,5.0,73,29.99,10.0,Calm,Calm,-,N/A,,Clear,0,2013-12-07 11:57:00
5:57 AM,10.9,5.0,77,29.99,10.0,SW,6.9,-,N/A,,Clear,220,2013-12-07 12:57:00
6:57 AM,14.0,7.0,74,29.99,10.0,SW,9.2,-,N/A,,Clear,230,2013-12-07 13:57:00
7:57 AM,17.1,9.0,71,30.01,10.0,WSW,11.5,-,N/A,,Clear,250,2013-12-07 14:57:00
8:54 AM,19.4,10.4,68,29.90,10.0,SW,13.8,-,N/A,,Mostly Cloudy,220,2013-12-07 15:54:00
8:57 AM,19.0,10.9,71,30.03,10.0,SW,13.8,-,N/A,,Mostly Cloudy,220,2013-12-07 15:57:00
9:57 AM,19.9,12.0,71,30.04,10.0,SSW,20.7,-,N/A,,Overcast,210,2013-12-07 16:57:00
10:57 AM,23.0,14.0,68,30.01,10.0,SW,17.3,26.5,N/A,,Mostly Cloudy,230,2013-12-07 17:57:00
11:57 AM,21.9,15.1,75,29.99,10.0,SW,18.4,26.5,N/A,,Overcast,230,2013-12-07 18:57:00
12:19 PM,21.9,16.0,78,29.84,10.0,SW,23.0,32.2,N/A,,Overcast,230,2013-12-07 19:19:00
12:57 PM,23.0,16.0,74,29.96,10.0,SW,27.6,38.0,N/A,,Overcast,220,2013-12-07 19:57:00
1:57 PM,23.0,18.0,81,29.88,4.0,SW,23.0,33.4,0.00,Snow,Light Snow,230,2013-12-07 20:57:00
2:57 PM,24.1,19.0,81,29.85,6.0,SSW,19.6,29.9,0.00,Snow,Light Snow,210,2013-12-07 21:57:00
3:43 PM,23.0,19.0,85,29.77,1.8,SW,24.2,32.2,0.00,Snow,Light Snow,220,2013-12-07 22:43:00
3:57 PM,23.0,19.0,85,29.84,0.8,SSW,19.6,29.9,0.00,Snow,Light Snow,210,2013-12-07 22:57:00
4:57 PM,23.0,19.9,88,29.86,0.5,SSW,24.2,28.8,0.01,Fog-Snow,Snow,210,2013-12-07 23:57:00
5:16 PM,23.0,19.9,88,29.77,0.2,SSW,23.0,31.1,0.00,Fog-Snow,Snow,210,2013-12-08 00:16:00
5:35 PM,23.0,19.9,88,29.76,0.5,SSW,28.8,34.5,0.00,Fog-Snow,Snow,210,2013-12-08 00:35:00
5:57 PM,23.0,19.9,88,29.86,0.5,SW,27.6,36.8,0.01,Fog-Snow,Snow,220,2013-12-08 00:57:00
6:57 PM,23.0,21.0,92,29.85,0.5,SSW,23.0,33.4,0.01,Fog-Snow,Snow,210,2013-12-08 01:57:00
7:57 PM,24.1,21.9,91,29.81,0.5,SW,27.6,34.5,0.02,Fog-Snow,Snow,230,2013-12-08 02:57:00
8:57 PM,25.0,23.0,92,29.81,0.5,SW,20.7,36.8,0.05,Fog-Snow,Snow,220,2013-12-08 03:57:00
9:57 PM,25.0,23.0,92,29.80,0.5,SW,26.5,38.0,0.02,Fog-Snow,Snow,230,2013-12-08 04:57:00
10:57 PM,26.1,24.1,92,29.81,0.5,SW,23.0,27.6,0.09,Fog-Snow,Snow,230,2013-12-08 05:57:00
11:57 PM,26.1,24.1,92,29.81,0.8,SW,26.5,33.4,0.04,Snow,Light Snow,220,2013-12-08 06:57:00